Location: Newark
(58.8333°N, 23.5833°E)
Time: 13:45:15
(UTC+00:00)

Tiros 1 despin weight - Pass Details

Date: 24 November 2019
Orbit: 594 x 642 km, 48.2° (Epoch: 06 December)

Event Time Altitude Azimuth Distance (km) Brightness Sun altitude
Rises 12:17:58 0° 243° (WSW) 2,828 ? 6.5°
Reaches altitude 10° 12:20:41 10° 227° (SW) 1,928 ? 6.3°
Maximum altitude 12:23:59 21° 179° (S) 1,363 ? 6.1°
Drops below altitude 10° 12:27:17 10° 130° (SE) 1,939 ? 5.9°
Sets 12:30:01 0° 114° (ESE) 2,849 ? 5.7°
